CORAL

Last updated on Sat Aug 01 2026 00:02:08 GMT+0000 (Coordinated Universal Time)

1 67684U 98067YA 26212.62137753 .06930230 12221-4 10997-2 0 9991 2 67684 51.5992 54.2541 0013311 279.5039 80.4480 16.32675236 27430

Satellite not in orbit

CORAL